When you browse on this site, cookies collect data to enhance your experience and personalize the content and advertising you see.
Visit our Privacy Policy to learn more. By continuing to use the site, you agree to this use of cookies and data.
  • en Suisse
  • Liste des pays
  • À 7 jours
  • Température de l'eau
  • Carte satellitaire
  • Carte météo
  • Widgets météo
  • user-avatar
    Se connecter

    Météo par heure à Xinqing

    Ce jour, 18 Juillet, Jeudi

    Heure Température Précipitation Vent Pression Humidité
    00:00 +19°C° 0 mm 1 m/s 724 mmHg 98%
    01:00 +19°C° 0 mm 1 m/s 724 mmHg 98%
    02:00 +19°C° 0 mm 1 m/s 724 mmHg 99%
    03:00 +19°C° 0 mm 1 m/s 724 mmHg 98%
    04:00 +19°C° 0 mm 1 m/s 724 mmHg 98%
    05:00 +19°C° 0 mm 1 m/s 725 mmHg 98%
    06:00 +19°C° 0 mm 1 m/s 725 mmHg 98%
    07:00 +20°C° 0 mm 1 m/s 725 mmHg 93%
    08:00 +22°C° 0 mm 1 m/s 725 mmHg 88%
    09:00 +23°C° 0 mm 1 m/s 725 mmHg 82%
    10:00 +24°C° 0 mm 1 m/s 725 mmHg 77%
    11:00 +25°C° 0 mm 1 m/s 725 mmHg 71%
    12:00 +26°C° 0 mm 1 m/s 725 mmHg 65%
    13:00 +27°C° 0.1 mm 2 m/s 725 mmHg 62%
    14:00 +28°C° 0.1 mm 2 m/s 724 mmHg 58%
    15:00 +29°C° 0.1 mm 2 m/s 724 mmHg 55%
    16:00 +28°C° 0.6 mm 2 m/s 724 mmHg 66%
    17:00 +27°C° 0.6 mm 2 m/s 724 mmHg 77%
    18:00 +25°C° 0.6 mm 2 m/s 724 mmHg 88%
    19:00 +24°C° 0.3 mm 1 m/s 724 mmHg 91%
    20:00 +22°C° 0.3 mm 1 m/s 724 mmHg 93%
    21:00 +19°C° 0.3 mm 0 m/s 724 mmHg 96%
    22:00 +20°C° 0 mm 1 m/s 724 mmHg 96%
    23:00 +20°C° 0 mm 1 m/s 724 mmHg 96%

    Demain, 19 Juillet, Vendredi

    Heure Température Précipitation Vent Pression Humidité
    00:00 +19°C° 0 mm 1 m/s 724 mmHg 96%
    01:00 +19°C° 0 mm 1 m/s 724 mmHg 97%
    02:00 +19°C° 0 mm 1 m/s 724 mmHg 97%
    03:00 +18°C° 0 mm 1 m/s 724 mmHg 97%
    04:00 +19°C° 0 mm 1 m/s 725 mmHg 97%
    05:00 +19°C° 0 mm 1 m/s 725 mmHg 98%
    06:00 +19°C° 0 mm 1 m/s 725 mmHg 98%
    07:00 +22°C° 0 mm 1 m/s 725 mmHg 88%
    08:00 +24°C° 0 mm 1 m/s 726 mmHg 79%
    09:00 +27°C° 0 mm 1 m/s 726 mmHg 69%
    10:00 +29°C° 0 mm 1 m/s 726 mmHg 60%
    11:00 +30°C° 0 mm 1 m/s 726 mmHg 50%
    12:00 +32°C° 0 mm 1 m/s 726 mmHg 41%
    13:00 +33°C° 0 mm 1 m/s 726 mmHg 39%
    14:00 +33°C° 0 mm 1 m/s 725 mmHg 37%
    15:00 +33°C° 0 mm 1 m/s 725 mmHg 35%
    16:00 +32°C° 0 mm 1 m/s 725 mmHg 41%
    17:00 +31°C° 0 mm 1 m/s 725 mmHg 47%
    18:00 +30°C° 0 mm 1 m/s 725 mmHg 54%
    19:00 +28°C° 0 mm 1 m/s 725 mmHg 62%
    20:00 +25°C° 0 mm 1 m/s 725 mmHg 70%
    21:00 +22°C° 0 mm 1 m/s 725 mmHg 79%
    22:00 +22°C° 0 mm 1 m/s 725 mmHg 82%
    23:00 +21°C° 0 mm 1 m/s 725 mmHg 85%

    Après-demain, 20 Juillet, Samedi

    Heure Température Précipitation Vent Pression Humidité
    00:00 +21°C° 0 mm 1 m/s 725 mmHg 88%
    01:00 +20°C° 0 mm 1 m/s 725 mmHg 89%
    02:00 +20°C° 0 mm 1 m/s 725 mmHg 90%
    03:00 +18°C° 0 mm 0 m/s 725 mmHg 91%
    04:00 +18°C° 0 mm 0 m/s 725 mmHg 90%
    05:00 +19°C° 0 mm 0 m/s 725 mmHg 89%
    06:00 +19°C° 0 mm 0 m/s 725 mmHg 88%
    07:00 +24°C° 0 mm 1 m/s 726 mmHg 79%
    08:00 +27°C° 0 mm 1 m/s 726 mmHg 70%
    09:00 +29°C° 0 mm 1 m/s 726 mmHg 61%
    10:00 +30°C° 0 mm 2 m/s 726 mmHg 56%
    11:00 +33°C° 0 mm 3 m/s 726 mmHg 50%
    12:00 +34°C° 0 mm 3 m/s 726 mmHg 45%
    13:00 +34°C° 0 mm 4 m/s 726 mmHg 46%
    14:00 +34°C° 0 mm 4 m/s 725 mmHg 48%
    15:00 +34°C° 0 mm 4 m/s 725 mmHg 49%
    16:00 +33°C° 0 mm 4 m/s 725 mmHg 55%
    17:00 +30°C° 0 mm 4 m/s 724 mmHg 61%
    18:00 +29°C° 0 mm 4 m/s 724 mmHg 66%
    19:00 +28°C° 0 mm 3 m/s 724 mmHg 74%
    20:00 +26°C° 0 mm 3 m/s 725 mmHg 81%
    21:00 +25°C° 0 mm 3 m/s 725 mmHg 89%
    22:00 +24°C° 0 mm 2 m/s 725 mmHg 91%
    23:00 +24°C° 0 mm 2 m/s 724 mmHg 93%

    21 Juillet, Dimanche

    Heure Température Précipitation Vent Pression Humidité
    00:00 +23°C° 0 mm 2 m/s 724 mmHg 96%
    01:00 +23°C° 0 mm 2 m/s 724 mmHg 96%
    02:00 +23°C° 0 mm 1 m/s 724 mmHg 97%
    03:00 +22°C° 0 mm 1 m/s 724 mmHg 97%
    04:00 +22°C° 0 mm 1 m/s 724 mmHg 97%
    05:00 +22°C° 0 mm 1 m/s 724 mmHg 96%
    06:00 +22°C° 0 mm 1 m/s 724 mmHg 96%
    07:00 +24°C° 0 mm 2 m/s 724 mmHg 87%
    08:00 +26°C° 0 mm 2 m/s 724 mmHg 77%
    09:00 +28°C° 0 mm 2 m/s 725 mmHg 68%
    10:00 +29°C° 0 mm 3 m/s 725 mmHg 62%
    11:00 +31°C° 0 mm 3 m/s 725 mmHg 55%
    12:00 +34°C° 0 mm 3 m/s 725 mmHg 49%
    13:00 +34°C° 0 mm 4 m/s 725 mmHg 49%
    14:00 +34°C° 0 mm 4 m/s 724 mmHg 50%
    15:00 +34°C° 0 mm 5 m/s 724 mmHg 50%
    16:00 +33°C° 0 mm 4 m/s 724 mmHg 56%
    17:00 +32°C° 0 mm 4 m/s 724 mmHg 61%
    18:00 +30°C° 0 mm 4 m/s 724 mmHg 66%
    19:00 +28°C° 0.1 mm 3 m/s 724 mmHg 74%
    20:00 +26°C° 0.1 mm 3 m/s 724 mmHg 82%
    21:00 +24°C° 0.1 mm 2 m/s 724 mmHg 90%
    22:00 +24°C° 0.4 mm 2 m/s 724 mmHg 92%
    23:00 +23°C° 0.4 mm 2 m/s 724 mmHg 94%

    22 Juillet, Lundi

    Heure Température Précipitation Vent Pression Humidité
    00:00 +23°C° 0.4 mm 2 m/s 724 mmHg 96%
    01:00 +23°C° 0.1 mm 2 m/s 724 mmHg 97%
    02:00 +23°C° 0.1 mm 2 m/s 723 mmHg 97%
    03:00 +23°C° 0.1 mm 2 m/s 723 mmHg 97%
    04:00 +23°C° 0.3 mm 2 m/s 723 mmHg 97%
    05:00 +21°C° 0.3 mm 2 m/s 723 mmHg 97%
    06:00 +21°C° 0.3 mm 2 m/s 722 mmHg 97%
    07:00 +23°C° 0 mm 2 m/s 722 mmHg 93%
    08:00 +24°C° 0 mm 3 m/s 722 mmHg 88%
    09:00 +25°C° 0 mm 3 m/s 722 mmHg 83%
    10:00 +27°C° 0 mm 4 m/s 722 mmHg 73%
    11:00 +29°C° 0 mm 4 m/s 722 mmHg 64%
    12:00 +32°C° 0 mm 5 m/s 722 mmHg 54%
    13:00 +32°C° 1.1 mm 4 m/s 721 mmHg 64%
    14:00 +30°C° 1.1 mm 4 m/s 720 mmHg 74%
    15:00 +29°C° 1.1 mm 4 m/s 720 mmHg 83%
    16:00 +28°C° 3 mm 3 m/s 720 mmHg 87%
    17:00 +27°C° 3 mm 3 m/s 719 mmHg 91%
    18:00 +26°C° 3 mm 2 m/s 719 mmHg 94%
    19:00 +25°C° 0.8 mm 2 m/s 719 mmHg 95%
    20:00 +24°C° 0.8 mm 2 m/s 719 mmHg 96%
    21:00 +23°C° 0.8 mm 1 m/s 720 mmHg 97%
    22:00 +22°C° 0.1 mm 1 m/s 719 mmHg 97%
    23:00 +22°C° 0.1 mm 1 m/s 719 mmHg 97%

    23 Juillet, Mardi

    Heure Température Précipitation Vent Pression Humidité
    00:00 +22°C° 0.1 mm 1 m/s 719 mmHg 98%
    01:00 +21°C° 0.1 mm 1 m/s 719 mmHg 98%
    02:00 +21°C° 0.1 mm 1 m/s 719 mmHg 98%
    03:00 +21°C° 0.1 mm 1 m/s 719 mmHg 98%
    04:00 +21°C° 0 mm 1 m/s 719 mmHg 98%
    05:00 +21°C° 0 mm 1 m/s 719 mmHg 98%
    06:00 +21°C° 0 mm 1 m/s 719 mmHg 98%
    07:00 +23°C° 0 mm 2 m/s 719 mmHg 88%
    08:00 +25°C° 0 mm 3 m/s 720 mmHg 79%
    09:00 +27°C° 0 mm 3 m/s 720 mmHg 69%
    10:00 +28°C° 0 mm 4 m/s 720 mmHg 62%
    11:00 +30°C° 0 mm 4 m/s 720 mmHg 56%
    12:00 +32°C° 0 mm 5 m/s 720 mmHg 49%
    13:00 +32°C° 0 mm 5 m/s 720 mmHg 49%
    14:00 +32°C° 0 mm 5 m/s 719 mmHg 49%
    15:00 +32°C° 0 mm 5 m/s 719 mmHg 49%
    16:00 +32°C° 0 mm 4 m/s 719 mmHg 54%
    17:00 +30°C° 0 mm 3 m/s 719 mmHg 59%
    18:00 +29°C° 0 mm 2 m/s 719 mmHg 64%
    19:00 +28°C° 0.1 mm 2 m/s 720 mmHg 68%
    20:00 +26°C° 0.1 mm 2 m/s 720 mmHg 72%
    21:00 +24°C° 0.1 mm 2 m/s 720 mmHg 76%
    22:00 +24°C° 0 mm 1 m/s 720 mmHg 78%
    23:00 +23°C° 0 mm 1 m/s 720 mmHg 81%
    Voir plus